User: anonymous   Login
Location: Caltech
(34.1382°N, 118.1253°W)
Time: 17:56:07
(UTC-08:00)
Language:

AO-Echo - Orbit

View from above orbital plane
View from above orbital plane
View from above satellite
View from above satellite

Ground track
Ground track

The orbit data is extracted from the following two-line orbital elements,

1 28375U 04025K   16338.38823615  .00000038  00000-0  24216-4 0  9993
2 28375  98.3431 270.0796 0083067 153.2804 207.2702 14.41813229653608
Epoch (UTC): 03 December 2016 09:19:03
Eccentricity: 0.0083067
inclination: 98.3431°
perigee height: 693 km
apogee height: 812 km
right ascension of ascending node: 270.0796°
argument of perigee: 153.2804°
revolutions per day: 14.41813229
mean anomaly at epoch: 207.2702°
orbit number at epoch: 65360

The dashed part of the orbit path shows where the satellite is in the earth's shadow,  

DLR